Regional Weather Roundup
Issued by NWS Upton, NY

Current Version | Previous Version | Text Only | Print | Product List | Glossary On
Versions: 1 2 3 4 5 6 7 8 9 10 11 12 13 14 15 16 17 18 19 20 21 22 23 24 25 26 27
000 ASUS41 KOKX 201605 RWROKX Regional Weather Roundup National Weather Service New York NY 1100 AM EST TUE FEB 20 2018 Note: "FAIR" indicates few or no clouds below 12,000 feet with no significant weather and/or obstructions to visibility. NYZ071-072-176-178-NJZ106-104-201700- New York City Metro Area CITY SKY/WX TMP DP RH WIND PRES REMARKS Central Park CLOUDY 54 51 90 W9G16 30.36S Bronx Bot Gard N/A 54 50 87 S3 30.33S Bronx Lehman C N/A 54 50 87 SW6 N/A LaGuardia Arpt PTSUNNY 55 51 86 SW18G24 30.33S Queens College N/A 54 52 94 W12 N/A Kennedy Intl CLOUDY 52 52 100 SW13 30.35S Breezy Point N/A 48 N/A N/A W6G13 N/A Brooklyn Coll N/A 54 52 94 SW7 N/A Staten Island N/A 54 52 94 SW6 N/A Newark/Liberty CLOUDY 54 52 93 SW16 30.34S Teterboro CLOUDY 54 50 86 W12 30.33S FOG $$ NYZ177-179-078>081-201700- Long Island New York CITY SKY/WX TMP DP RH WIND PRES REMARKS Jones Beach N/A 48 N/A N/A W8 N/A Wantagh N/A 54 54 100 SW12 N/A Hempstead N/A 54 54 100 S5 30.38R Matinecock Pt N/A 48 N/A N/A SW14 N/A Farmingdale CLOUDY 54 52 93 W16 30.34S MacArthur/ISP FOG 53 53 100 SW12 30.33F VSB 1 Shirley CLOUDY 50 50 100 SW6 30.34F FOG Mt Sinai Harb N/A 55 N/A N/A SW3G10 N/A Westhampton FOG 47 47 100 SW7 30.35S VSB 1/4 East Hampton FOG 48 47 98 SW6 30.33S VSB 1 Southold N/A 50 50 100 S6 N/A Montauk N/A 50 50 100 SW9 30.34S $$ NYZ052-065-067-201700- Hudson Valley CITY SKY/WX TMP DP RH WIND PRES REMARKS White Plains PTSUNNY 51 49 92 W7 30.31F Larchmont Harb N/A 48 N/A N/A S9 N/A Croton On Huds N/A 50 N/A N/A S7 N/A Somers N/A 48 48 100 SW7 N/A Brewster N/A 48 46 93 S3 N/A Newburgh PTSUNNY 50 50 100 W6 30.32S Montgomery CLOUDY 50 46 86 SW9 30.28F Otisville N/A 48 45 87 W8 N/A Warwick N/A 54 48 82 W9 N/A Suffern N/A 52 46 82 SW7 N/A Poughkeepsie CLOUDY 49 45 86 SW7 30.29F Albany FAIR 51 44 77 S15G23 30.22F $$ NJZ001-105-106-008-010-013-015-019>022-104-201700- New Jersey CITY SKY/WX TMP DP RH WIND PRES REMARKS Newark/Liberty CLOUDY 54 52 93 SW16 30.34S Teterboro CLOUDY 54 50 86 W12 30.33S FOG Caldwell CLOUDY 51 50 96 VRB6 30.34S Somerville CLOUDY 50 50 100 CALM 30.34S FOG Linden CLOUDY 53 52 97 CALM 30.35S FOG Perth Amboy N/A 54 N/A N/A SW12 N/A Sussex CLOUDY 48 47 96 SW12 30.32S Andover N/A 47 47 100 S9 30.34R Trenton CLOUDY 57 54 89 SW8 30.35F Millville FAIR 66 58 75 SW9G21 30.37F Atlantic City FAIR 66 59 78 S13G21 30.37F Wrightstown PTSUNNY 62 55 76 W15 30.32 Toms River FAIR 67 57 70 SW14G22 30.35F Belmar FAIR 65 56 72 SW10 30.35F $$ PAZ047>061-062-071-201700- Eastern Pennsylvania CITY SKY/WX TMP DP RH WIND PRES REMARKS Philadelphia CLOUDY 54 53 97 SW13 30.37F FOG Allentown FOG 46 43 89 CALM 30.35S VSB 1/4 Scranton PTSUNNY 50 47 89 SW6 30.29F $$ CTZ002-004>006-009-010-012-RIZ004-006-007-MAZ004-011-015-201700- Southern New England In CT CITY SKY/WX TMP DP RH WIND PRES REMARKS Bradley Intl PTSUNNY 55 48 77 S12 30.27F Hartford CLOUDY 54 50 86 S7 30.29F Danbury CLOUDY N/A N/A N/A SW10 30.32S Wtrbury/Oxford CLOUDY 50 48 93 SW7 30.30F Norwalk Harbor N/A 43 N/A N/A SW12 N/A Bridgeport CLOUDY 49 47 93 SW12 30.32S Meriden CLOUDY 53 50 89 VRB7 30.30F New Haven CLOUDY 50 48 93 SW9G20 30.31F FOG Chester FOG 52 52 100 SW10G20 30.30S VSB 3/4 Groton FOG 47 46 97 S6 30.31F VSB 1/4 Willimantic CLOUDY 55 51 86 SW7 30.29F In RI CITY SKY/WX TMP DP RH WIND PRES REMARKS Providence PTSUNNY 58 53 84 SW18G25 30.28F Block Island LGT RAIN 46 46 100 SW17 30.34F VSB 1/4 Westerly FOG 48 48 100 SW7 30.33S VSB 1/4 In MA CITY SKY/WX TMP DP RH WIND PRES REMARKS Boston PTSUNNY 61 52 72 SW10 30.23F Worcester FAIR 55 50 83 SW16 30.24F Westfield FAIR 55 50 83 S9 30.25S Provincetown CLOUDY 46 45 96 SW16 30.27F FOG Nantucket FOG 46 46 100 SW14 30.34F VSB 1/4 $$ ANZ330-335-338-340-345-350-353-355-201700- Coastal Marine Observations STATION/POSITION TIME SKY/WX TEMP WIND PRES VSBY WAVE AIR SEA DIR/SP/G HT/PER (UTC) (F) (DEG/KT/KT) (MB) (MI) (FT/S) NY Harb Entrance 1550 44 42 190/ 2/ 4 1027.3 3/ 5 20 S Fire Island 1550 45 42 230/ 12/ 16 1027.8 4/ 5 15 E Barnegat Li 1530 41 N/A 4/11 Hudson Canyon 1550 50 46 210/ 16/ 17 1029.1 5/12 Kings Point 1548 50 37 260/ 12/ 14 1028.2 Execution Rocks NOT AVBL Western LI Sound NOT AVBL Central LI Sound 1515 42 250/ 4/ 4 N/A 0 Robbins Reef 1548 52 250/ 10/ 16 1028.1 $$ >>>>>>>>>>>>>>>>>>>>>>>>>>>> KEY <<<<<<<<<<<<<<<<<<<<<<<<<<< > < > SKY/WX - Sky Condition/Present Weather < > TMP - Temperature in Fahrenheit < > DP - Dew Point in Fahrenheit < > RH - Relative Humidity in Percent < > WIND - Direction (from) and Speed in MPH < > PRES - Mean Sea Level Pressure (inches of Hg) < > WCI - Wind Chill Index < > VSB - Visibility in Miles < > HX - Heat Index < > TC - Temperature in Celsius < > VRB - Varibale Wind Direction < > < >>>>>>>>>>>>>>>>>>>>>>>>>>>> KEY <<<<<<<<<<<<<<<<<<<<<<<<<<<

USA.gov is the U.S. government's official web portal to all federal, state and local government web resources and services.